Tracking 32110 objects as of 7-Nov-2025
HD Live streaming from Space Station
objects crossing your sky now

ICEYE-X30

Track ICEYE-X30 now!
10-day predictions


NORAD ID: 56947
Int'l Code: 2023-084R
Perigee: 413.9 km
Apogee: 419.4 km
Inclination: 97.6 °
Period: 92.8 minutes
Semi major axis: 6787 km
RCS: Unknown
Launch date: June 12, 2023
Source: United States (US)
Launch site: AIR FORCE WESTERN TEST RANGE (AFWTR)
Your satellite tracking list
Your tracking list is empty




NASA's NSSDC Master Catalog

Two Line Element Set (TLE):
1 56947U 23084R   25311.30531084  .00058717  00000-0  95512-3 0  9997
2 56947  97.5785  89.1179 0004035  46.3271 313.8315 15.52480537134129
Source of the keplerian elements: AFSPC